SL-16 DEB, 23282

Orbit data source: Space-Track

SL-16 DEB, 23282 is space debris in LEO originally from a launch on Fri, 25 Dec 1992 UTC launched from the Tyuratam Missile And Space Complex (TTMTR). Debris objects in space refer to the collection of defunct objects orbiting the Earth. Examples of debris include non-operational satellites, rocket bodies, and fragments generated from explosions, collisions, or faulty payload assembly.

Loading next visibility...
Identifier
23282, 1992-093JG
Orbit
LEO
Country
Flag of CISCIS
Related business
Manufacturer
Unknown
Mission
Spacecraft
Bus & Motor
Unknown
Mass
Unknown
Launch date (UTC)
1992-12-25 (33 years ago)
Launch vehicle
Unknown
Launch site
Tyuratam Missile And Space Complex (TTMTR)
Object type
Payload
Rocket body
Debris
Shape & HBR
Unknown shape, 0.1 m
Radar Cross Section
Small (<0.1 m²)

Expand to show TLE details & history
Last TLE update: 18 hours ago

TLE from 18 hours ago
0 SL-16 DEB
1 23282U 92093JG  26036.95835213  .00022512  00000-0  42798-2 0  9997
2 23282  71.1718  31.2882 0043988 174.2833 227.3177 14.63465934655312
Epoch: 2026-02-05T23:00Z
TLE epoch observation values (Epoch: 2026-02-05T23:00:01.624Z)
Latitude
38.68912°
Longitude
-74.06205°
Altitude
708.052 km
Speed
7.494 km/s
True Right ascension
03h 08m 11s
True Declination
38° 31' 13"
Sunlit
Object was in daylight at epoch
Visualization orbit readout
Latitude
Unknown
Longitude
Unknown
Altitude
Unknown
Speed
Unknown
Apparent Right ascension
Unknown
Apparent Declination
Unknown
Sunlit
N/A
Visualization observer readout
Local Sidereal Time
19:02:53
Azimuth
Unknown
Elevation
Unknown
Doppler factor
Unknown
Orbital elements
Apogee altitude
710.912 km
Perigee altitude
648.818 km
Semi-major axis
7,058.002 km
Eccentricity
0.0044
Inclination
71.1718°
RAAN
31.2882°
Arg. of periapsis
174.2833°
True anomaly
226.94853°
Mean anomaly
227.3177°
Eccentric anomaly
227.13298°
Mean motion
3.66033 °/min
Orbital period
98.35 mins
BSTAR
0.0042798
Loading maneuver chart data...
Computing Atmospheric mass density...
Loading historical data...
Loading historical data...
Loading historical data...
Loading historical data...
Loading historical data...
Loading historical data...
Loading historical data...

Documentation

Showing up to 5 results
|